Montana Department of Transportation

Main Content

Accidents and Incidents Report

Hourly Weather Roundup

ASUS45 KTFX 301210
RWRMT 
MONTANA REGIONAL WEATHER ROUNDUP
NATIONAL WEATHER SERVICE GREAT FALLS MT
600 AM MDT TUE MAY 30 2017

NOTE: "FAIR" INDICATES FEW OR NO CLOUDS BELOW 12000 FEET WITH NO
SIGNIFICANT WEATHER AND/OR OBSTRUCTIONS TO VISIBILITY.

MTZ001.007-043-301300-
WEST OF THE DIVIDE
  
CITY           SKY/WX    TMP DP  RH WIND       PRES   REMARKS
KALISPELL      CLEAR     47  45  93 CALM      30.05R                  
MISSOULA       CLEAR     49  42  77 CALM      30.08R                  
BUTTE          PTCLDY    38  34  85 SE5       30.18S                  
MULLAN PASS    CLEAR     55  33  43 SE9       30.14S                  
ANACONDA         N/A     45  36  70 S6        30.14S                  
DEER LODGE       N/A     41  37  87 CALM      30.16F                  
EUREKA           N/A     46  43  87 CALM      30.06R                  
HAMILTON         N/A     48  39  71 SE6       30.09R                  
RONAN            N/A     50  43  77 CALM      30.08S                  
--------------------------------

MTZ008-052.055-301300-
SOUTHWEST MONTANA
  
CITY           SKY/WX    TMP DP  RH WIND       PRES   REMARKS
BOZEMAN        CLEAR     44  38  79 E6        30.14S                  
DILLON         CLOUDY    48  38  68 SW9       30.16S                  
ENNIS          CLEAR     39  36  87 CALM      30.21S                  
THREE FORKS      N/A     41  38  89 CALM      30.12R                  
--------------------------------

MTZ009-010-012-014-046-048-049-054-301300-
EAST SLOPES AND CENTRAL MONTANA
  
CITY           SKY/WX    TMP DP  RH WIND       PRES   REMARKS
CUT BANK       CLEAR     47  33  58 CALM      30.11S                  
GREAT FALLS    CLOUDY    48  44  86 SW3       30.11S                  
MALMSTROM AFB  MOCLDY    51  46  83 CALM      30.10F                  
HELENA         CLEAR     49  41  74 CALM      30.11S                  
CHOTEAU          N/A     46  43  87 W3        30.13S                  
CONRAD           N/A     42  42 100 CALM      30.13R                  
--------------------------------

MTZ011-013-016-021-045-047-050-051-301300-
NORTH CENTRAL MONTANA
  
CITY           SKY/WX    TMP DP  RH WIND       PRES   REMARKS
HAVRE          CLEAR     45  33  63 E9        30.11S                  
LEWISTOWN      CLEAR     41  37  86 SE7       30.14S                  
N BAR RANCH      N/A     39  32  75 CALM      30.19S                  
CHINOOK          N/A     43  32  65 E3        30.13S                  
FORT BENTON      N/A     52  39  62 MISG      30.12R                  
JUDITH GAP       N/A     42  34  74 S8        30.16S                  
--------------------------------

MTZ017.020-022.027-061-062-301300-
NORTHEAST MONTANA
  
CITY           SKY/WX    TMP DP  RH WIND       PRES   REMARKS
GLASGOW        CLEAR     42  27  55 CALM      30.15R                  
JORDAN           N/A     35  27  72 W3        30.14S                  
SIDNEY         CLEAR     44  30  57 NW5       30.15R                  
WOLF POINT     CLEAR     38  29  70 CALM      30.17R                  
MALTA          CLEAR     37  34  87 CALM      30.15S                  
PLENTYWOOD       N/A     37  30  75 CALM      30.16R                  
POPLAR           N/A     43  28  56 CALM      30.17R                  
--------------------------------

MTZ028.42-056.058-301300-
SOUTHCENTRAL AND SOUTHEAST MONTANA
  
CITY           SKY/WX    TMP DP  RH WIND       PRES   REMARKS
BAKER          CLEAR     34  27  75 CALM      30.14R                  
BILLINGS       PTCLDY    48  36  63 CALM      30.14R                  
LIVINGSTON     CLEAR     41  38  89 NW3       30.16F                  
MILES CITY     CLEAR     39  27  62 NW6       30.14R                  
BIG TIMBER     CLEAR     45  39  81 W7        30.19S                  
FORSYTH          N/A     43  30  61 CALM      30.14R                  
LAUREL           N/A     42  35  76 CALM      30.11F                  
ROUNDUP          N/A     42  32  68 S7        30.04S--------------------------------

REGIONAL REPORTS...DAKOTAS
  
CITY           SKY/WX    TMP DP  RH WIND       PRES   REMARKS
WILLISTON      CLEAR     39  33  79 NE6       30.14R                  
MINOT          CLEAR     45  40  82 W13       30.06R                  
DICKINSON      CLEAR     36  29  75 W8        30.08R WCI  30          
BEACH            N/A     32  30  93 CALM      30.16R                  
CROSBY           N/A     39  36  87 NW10      30.14R                  
TIOGA            N/A     37  37 100 CALM      30.13R                  
WATFORD CITY     N/A     36  32  87 CALM      30.12R                  
BISMARCK       CLEAR     42  38  85 W8        30.08R                  
GRAND FORKS    LGT RAIN  47  46  97 NW12      29.95R FOG              
FARGO          CLOUDY    48  43  82 NW15G23   29.95R                  
BUFFALO SD       N/A     41  31  67 NW8       30.06R                  
RAPID CITY     CLEAR     45  30  55 NW8       30.13R                  
--------------------------------

REGIONAL REPORTS...WYOMING/IDAHO/WASHINGTON
  
CITY           SKY/WX    TMP DP  RH WIND       PRES   REMARKS
GILLETTE       CLEAR     41  35  79 CALM      30.16R                  
SHERIDAN       CLEAR     38  34  85 CALM      30.16R                  
BUFFALO WY     CLEAR     46  31  55 W7        30.18S                  
CODY           CLEAR     45  36  70 CALM      30.19R                  
YELLOWSTONE LA   N/A     30  29  96 CALM      30.33R                  
IDAHO FALLS    CLEAR     42  40  92 NW6       30.13S                  
SALMON         CLEAR     45  39  81 CALM      30.11S                  
BOISE          CLEAR     62  43  49 CALM      29.97R                  
SPOKANE        PTCLDY    61  47  59 NE3       29.95S                  
--------------------------------

REGIONAL REPORTS...ALBERTA
  
CITY           SKY/WX    TMP DP  RH WIND       PRES   REMARKS
EDMONTON       CLEAR     55  34  44 S13G20    30.08S                  
CALGARY        PTCLDY    50  37  62 S6        30.08F                  
LETHBRIDGE     PTCLDY    46  41  81 SW6       30.08S                  
MEDICINE HAT   CLEAR     45  36  70 NE3       30.11R                  
WATERTON GATE    N/A     45  39  81 SW8         N/A                   
CARDSTON         N/A     45  39  81 SE3         N/A                   
MILK RIVER       N/A     50  37  62 SW5         N/A                   
--------------------------------

REGIONAL REPORTS...SASKATCHEWAN
  
CITY           SKY/WX    TMP DP  RH WIND       PRES   REMARKS
SWIFT CURRENT  CLEAR     37  28  70 SE7       30.17R                  
REGINA         PTCLDY    37  34  87 NW6       30.17R                  
SASKATOON      PTCLDY    39  34  81 CALM      30.21R                  
CYPRESS HILLS    N/A     45  25  45 SE6         N/A                   
VAL MARIE        N/A     32  25  74 NE3         N/A                   
ROCKGLEN         N/A     41  32  70 NE2         N/A                   
ASSINIBOIA       N/A     46  36  66 SE6         N/A                   
--------------------------------